Location: Andrest
(43.3200°N, 0.0641°E)
Time: 08:09:28
(UTC+00:00)

CZ-2D R/B - Pass Details

Date: 01 December 2020
Orbit: 520 x 538 km, 97.4° (Epoch: 23 January)

Event Time Altitude Azimuth Distance (km) Brightness Sun altitude
Rises 17:49:10 0° 150° (SSE) 2,647 6.7 -14.9°
Reaches altitude 10° 17:51:19 10° 143° (SE) 1,765 5.7 -15.3°
Maximum altitude 17:54:54 41° 73° (ENE) 781 3.6 -15.9°
Drops below altitude 10° 17:58:33 10° 2° (N) 1,790 5.8 -16.5°
Sets 18:00:45 0° 355° (N) 2,688 6.7 -16.9°
